Location: Baia Mare
(47.6567°N, 23.5850°E)
Time: 23:48:58
(UTC+03:00)

ISS - Pass Details

Date: 19 March 2018
Orbit: 403 x 408 km, 51.6° (Epoch: 23 September)

Event Time Altitude Azimuth Distance (km) Brightness Sun altitude
Exits shadow 03:52:17 11° 117° (ESE) 1,402 -0.8 -26.4°
Drops below altitude 10° 03:52:29 10° 117° (ESE) 1,486 -0.6 -26.3°
Enters shadow 04:54:37 -56° 309° (NW) 11,132 3.4 -16.8°
